AFL3500 UUEE-UNNT

Flight info

Callsign AFL3500
Flight time 4h 54m
Altitude 33000
Route OLMUN3J OLMUN T629 IPSIL T830 LAMGU N604 OGSIN P983 GISMA B926 SZ W1 GOLIM GOLIM1K
Aircraft A321/M-SDE3FGHIRWY/LB1

Departure

Time 2026-05-06 06:41
Airport Sheremetyevo International Airport (UUEE)

Arrival

Time 2026-05-06 11:36
Airport Novosibirsk Tolmachevo Airport (UNNT)
Time Latitude Longitude Altitude Speed Heading
2026-05-06 05:40 55.97840 37.41928 639 ft 0 kts 279°
2026-05-06 06:30 55.97837 37.41960 640 ft 3 kts 276°
2026-05-06 06:31 55.97836 37.41996 642 ft 3 kts 269°
2026-05-06 06:31 55.97837 37.42031 642 ft 3 kts 251°
2026-05-06 06:31 55.97845 37.42057 641 ft 3 kts 202°
2026-05-06 06:31 55.97852 37.42061 649 ft 0 kts 165°
2026-05-06 06:34 55.97848 37.42062 640 ft 3 kts 165°
2026-05-06 06:34 55.97810 37.42080 643 ft 9 kts 166°
2026-05-06 06:34 55.97745 37.42111 639 ft 10 kts 165°
2026-05-06 06:35 55.97693 37.42193 643 ft 11 kts 99°
2026-05-06 06:35 55.97706 37.42327 645 ft 11 kts 76°
2026-05-06 06:35 55.97726 37.42461 642 ft 11 kts 75°
2026-05-06 06:35 55.97747 37.42602 639 ft 12 kts 75°
2026-05-06 06:36 55.97765 37.42724 645 ft 8 kts 78°
2026-05-06 06:36 55.97735 37.42790 640 ft 8 kts 150°
2026-05-06 06:36 55.97681 37.42820 638 ft 9 kts 165°
2026-05-06 06:36 55.97618 37.42833 642 ft 9 kts 202°
2026-05-06 06:37 55.97591 37.42745 639 ft 0 kts 255°
2026-05-06 06:40 55.97573 37.42624 643 ft 37 kts 255°
2026-05-06 06:41 55.97445 37.41767 646 ft 103 kts 255°
2026-05-06 06:41 55.97213 37.40218 641 ft 154 kts 256°
2026-05-06 06:41 55.96937 37.38250 1049 ft 164 kts 256°
2026-05-06 06:41 55.96481 37.36389 1737 ft 164 kts 240°
2026-05-06 06:42 55.95829 37.34721 2260 ft 163 kts 236°
2026-05-06 06:42 55.95154 37.33100 2760 ft 161 kts 236°
2026-05-06 06:42 55.94484 37.31487 3189 ft 161 kts 237°
2026-05-06 06:42 55.93832 37.29895 3622 ft 160 kts 237°
2026-05-06 06:43 55.93173 37.28268 3926 ft 168 kts 237°
2026-05-06 06:43 55.92464 37.26493 4066 ft 183 kts 237°
2026-05-06 06:43 55.91699 37.24561 4188 ft 198 kts 238°
2026-05-06 06:43 55.90880 37.22475 4351 ft 212 kts 238°
2026-05-06 06:44 55.89975 37.20367 4837 ft 217 kts 225°
2026-05-06 06:44 55.88556 37.19361 5333 ft 233 kts 188°
2026-05-06 06:44 55.86899 37.20131 5581 ft 262 kts 158°
2026-05-06 06:44 55.85352 37.22013 5999 ft 276 kts 147°
2026-05-06 06:45 55.84047 37.24521 6559 ft 289 kts 121°
2026-05-06 06:45 55.83572 37.28054 7092 ft 301 kts 88°
2026-05-06 06:45 55.84153 37.31681 7457 ft 311 kts 59°
2026-05-06 06:45 55.85380 37.34866 7980 ft 313 kts 47°
2026-05-06 06:46 55.86841 37.37766 8531 ft 315 kts 43°
2026-05-06 06:46 55.88369 37.40585 9107 ft 318 kts 43°
2026-05-06 06:46 55.89882 37.43423 9672 ft 321 kts 44°
2026-05-06 06:46 55.91386 37.46387 10215 ft 324 kts 47°
2026-05-06 06:47 55.92634 37.49772 10717 ft 330 kts 65°
2026-05-06 06:47 55.93322 37.53678 11241 ft 332 kts 83°
2026-05-06 06:47 55.93425 37.57785 11746 ft 331 kts 99°
2026-05-06 06:47 55.93033 37.61823 12281 ft 331 kts 105°
2026-05-06 06:48 55.92574 37.65870 12820 ft 334 kts 105°
2026-05-06 06:48 55.92122 37.69942 13368 ft 335 kts 104°
2026-05-06 06:48 55.91558 37.73972 13889 ft 334 kts 114°
2026-05-06 06:48 55.90575 37.77702 14348 ft 332 kts 123°
2026-05-06 06:49 55.89462 37.81267 14818 ft 334 kts 123°
2026-05-06 06:49 55.88326 37.84892 15286 ft 336 kts 123°
2026-05-06 06:49 55.87182 37.88536 15756 ft 338 kts 123°
2026-05-06 06:49 55.86032 37.92205 16211 ft 340 kts 123°
2026-05-06 06:50 55.84875 37.95898 16685 ft 342 kts 123°
2026-05-06 06:50 55.83708 37.99609 17162 ft 344 kts 123°
2026-05-06 06:50 55.82534 38.03342 17626 ft 346 kts 123°
2026-05-06 06:50 55.81356 38.07089 18082 ft 349 kts 123°
2026-05-06 06:51 55.80319 38.11017 18479 ft 354 kts 111°
2026-05-06 06:51 55.79761 38.15331 18772 ft 364 kts 98°
2026-05-06 06:51 55.79731 38.19925 18884 ft 377 kts 89°
2026-05-06 06:51 55.79849 38.24578 19074 ft 385 kts 89°
2026-05-06 06:52 55.79961 38.29373 19436 ft 389 kts 89°
2026-05-06 06:52 55.80065 38.34196 19824 ft 391 kts 89°
2026-05-06 06:52 55.80201 38.39043 20210 ft 394 kts 84°
2026-05-06 06:52 55.80725 38.43845 20597 ft 397 kts 73°
2026-05-06 06:53 55.81572 38.48533 20976 ft 400 kts 72°
2026-05-06 06:53 55.82429 38.53245 21369 ft 402 kts 72°
2026-05-06 06:53 55.83283 38.57993 21742 ft 404 kts 72°
2026-05-06 06:53 55.84135 38.62773 22119 ft 406 kts 73°
2026-05-06 06:54 55.84987 38.67582 22487 ft 408 kts 73°
2026-05-06 06:54 55.85923 38.72371 22831 ft 411 kts 66°
2026-05-06 06:54 55.87125 38.76964 22979 ft 418 kts 64°
2026-05-06 06:54 55.88387 38.81686 23117 ft 426 kts 64°
2026-05-06 06:55 55.89677 38.86488 23262 ft 433 kts 64°
2026-05-06 06:55 55.90986 38.91377 23401 ft 440 kts 64°
2026-05-06 06:55 55.92311 38.96348 23530 ft 447 kts 64°
2026-05-06 06:55 55.93650 39.01406 23647 ft 453 kts 64°
2026-05-06 06:56 55.94999 39.06536 23765 ft 460 kts 65°
2026-05-06 06:56 55.96363 39.11730 23882 ft 466 kts 64°
2026-05-06 06:56 55.97749 39.16999 24000 ft 471 kts 64°
2026-05-06 06:56 55.99155 39.22326 24119 ft 477 kts 64°
2026-05-06 06:57 56.00578 39.27708 24304 ft 479 kts 64°
2026-05-06 06:57 56.02008 39.33119 24576 ft 481 kts 64°
2026-05-06 06:57 56.03436 39.38528 24826 ft 482 kts 64°
2026-05-06 06:57 56.04865 39.43967 25071 ft 483 kts 65°
2026-05-06 06:58 56.06294 39.49437 25280 ft 486 kts 65°
2026-05-06 06:58 56.07745 39.54823 25501 ft 487 kts 61°
2026-05-06 06:58 56.09519 39.59991 25733 ft 488 kts 56°
2026-05-06 06:58 56.11367 39.65108 25967 ft 490 kts 56°
2026-05-06 06:59 56.13217 39.70247 26208 ft 491 kts 56°
2026-05-06 06:59 56.15066 39.75405 26469 ft 492 kts 57°
2026-05-06 06:59 56.16914 39.80576 26823 ft 491 kts 57°
2026-05-06 06:59 56.18744 39.85721 27171 ft 490 kts 57°
2026-05-06 07:00 56.20564 39.90850 27495 ft 489 kts 57°
2026-05-06 07:00 56.22411 39.96067 27775 ft 490 kts 57°
2026-05-06 07:00 56.24242 40.01241 28055 ft 490 kts 57°
2026-05-06 07:00 56.26062 40.06385 28362 ft 489 kts 57°
2026-05-06 07:01 56.27892 40.11571 28677 ft 489 kts 57°
2026-05-06 07:01 56.29711 40.16742 29004 ft 488 kts 57°
2026-05-06 07:01 56.31501 40.21841 29306 ft 487 kts 57°
2026-05-06 07:01 56.33304 40.26984 29582 ft 487 kts 57°
2026-05-06 07:02 56.35129 40.32199 29886 ft 487 kts 57°
2026-05-06 07:02 56.36911 40.37309 30144 ft 486 kts 57°
2026-05-06 07:02 56.38709 40.42463 30368 ft 486 kts 57°
2026-05-06 07:02 56.40513 40.47648 30589 ft 486 kts 57°
2026-05-06 07:03 56.42308 40.52829 30837 ft 486 kts 57°
2026-05-06 07:03 56.44107 40.58041 31077 ft 486 kts 57°
2026-05-06 07:03 56.45700 40.63374 31317 ft 486 kts 66°
2026-05-06 07:03 56.46882 40.69086 31554 ft 486 kts 74°
2026-05-06 07:04 56.47765 40.74962 31781 ft 486 kts 75°
2026-05-06 07:04 56.48655 40.80911 32016 ft 485 kts 75°
2026-05-06 07:04 56.49528 40.86742 32253 ft 485 kts 75°
2026-05-06 07:04 56.50410 40.92647 32508 ft 483 kts 75°
2026-05-06 07:05 56.51281 40.98467 32780 ft 482 kts 75°
2026-05-06 07:05 56.53045 41.10262 32818 ft 484 kts 75°
2026-05-06 07:06 56.54782 41.22009 32820 ft 484 kts 75°
2026-05-06 07:06 56.56496 41.33774 32813 ft 484 kts 75°
2026-05-06 07:07 56.58205 41.45593 32810 ft 484 kts 75°
2026-05-06 07:07 56.59915 41.57428 32830 ft 484 kts 75°
2026-05-06 07:08 56.61609 41.69241 32815 ft 484 kts 75°
2026-05-06 07:08 56.63291 41.81085 32809 ft 485 kts 75°
2026-05-06 07:09 56.64958 41.92934 32804 ft 485 kts 75°
2026-05-06 07:09 56.66612 42.04787 32811 ft 483 kts 75°
2026-05-06 07:10 56.68250 42.16628 32827 ft 482 kts 75°
2026-05-06 07:10 56.69870 42.28403 32838 ft 481 kts 75°
2026-05-06 07:11 56.71490 42.40222 32824 ft 481 kts 76°
2026-05-06 07:11 56.73092 42.52073 32817 ft 482 kts 76°
2026-05-06 07:12 56.74768 42.63823 32809 ft 481 kts 73°
2026-05-06 07:12 56.76721 42.75469 32806 ft 481 kts 72°
2026-05-06 07:13 56.78387 42.85176 32805 ft 481 kts 72°
2026-05-06 07:13 56.80315 42.96865 32804 ft 482 kts 73°
2026-05-06 07:14 56.82192 43.08662 32799 ft 483 kts 73°
2026-05-06 07:14 56.84046 43.20437 32812 ft 481 kts 73°
2026-05-06 07:15 56.85897 43.32161 32829 ft 480 kts 73°
2026-05-06 07:15 56.87739 43.43860 32835 ft 480 kts 73°
2026-05-06 07:16 56.89569 43.55613 32828 ft 479 kts 73°
2026-05-06 07:16 56.91387 43.67350 32822 ft 479 kts 73°
2026-05-06 07:17 56.93185 43.79044 32817 ft 479 kts 73°
2026-05-06 07:17 56.94975 43.90764 32817 ft 479 kts 73°
2026-05-06 07:18 56.96756 44.02501 32823 ft 479 kts 73°
2026-05-06 07:18 56.98529 44.14293 32828 ft 479 kts 73°
2026-05-06 07:19 57.00289 44.26075 32813 ft 479 kts 73°
2026-05-06 07:19 57.02035 44.37847 32829 ft 478 kts 73°
2026-05-06 07:20 57.03766 44.49623 32825 ft 477 kts 73°
2026-05-06 07:20 57.05482 44.61372 32828 ft 476 kts 74°
2026-05-06 07:21 57.07185 44.73110 32828 ft 475 kts 74°
2026-05-06 07:21 57.08874 44.84811 32812 ft 476 kts 73°
2026-05-06 07:22 57.10561 44.96580 32810 ft 477 kts 74°
2026-05-06 07:22 57.12242 45.08455 32808 ft 477 kts 74°
2026-05-06 07:23 57.13897 45.20240 32802 ft 477 kts 74°
2026-05-06 07:23 57.15557 45.32097 32809 ft 477 kts 74°
2026-05-06 07:24 57.17203 45.43948 32822 ft 478 kts 74°
2026-05-06 07:24 57.18834 45.55787 32813 ft 479 kts 74°
2026-05-06 07:25 57.20460 45.67712 32805 ft 479 kts 75°
2026-05-06 07:25 57.22070 45.79609 32813 ft 480 kts 75°
2026-05-06 07:26 57.23677 45.91570 32815 ft 480 kts 75°
2026-05-06 07:26 57.25277 46.03551 32833 ft 480 kts 75°
2026-05-06 07:27 57.26858 46.15493 32812 ft 481 kts 75°
2026-05-06 07:27 57.28439 46.27534 32809 ft 481 kts 75°
2026-05-06 07:28 57.30004 46.39583 32820 ft 482 kts 75°
2026-05-06 07:28 57.32329 46.57688 32819 ft 482 kts 75°
2026-05-06 07:29 57.33871 46.69729 32825 ft 482 kts 75°
2026-05-06 07:29 57.35859 46.81494 32830 ft 478 kts 63°
2026-05-06 07:30 57.38596 46.92701 32836 ft 477 kts 63°
2026-05-06 07:30 57.41323 47.03911 32838 ft 477 kts 63°
2026-05-06 07:31 57.44041 47.15171 32837 ft 477 kts 63°
2026-05-06 07:31 57.46739 47.26369 32848 ft 477 kts 64°
2026-05-06 07:32 57.49439 47.37662 32831 ft 477 kts 64°
2026-05-06 07:32 57.52120 47.48952 32826 ft 477 kts 64°
2026-05-06 07:33 57.54799 47.60232 32827 ft 478 kts 64°
2026-05-06 07:33 57.57468 47.71516 32826 ft 478 kts 64°
2026-05-06 07:34 57.60139 47.82888 32841 ft 478 kts 64°
2026-05-06 07:34 57.62790 47.94284 32828 ft 479 kts 64°
2026-05-06 07:35 57.65439 48.05712 32823 ft 479 kts 64°
2026-05-06 07:35 57.68070 48.17103 32823 ft 479 kts 64°
2026-05-06 07:36 57.70718 48.28602 32823 ft 480 kts 64°
2026-05-06 07:36 57.73326 48.40030 32837 ft 480 kts 64°
2026-05-06 07:37 57.75276 48.51989 32827 ft 484 kts 80°
2026-05-06 07:37 57.76178 48.64543 32795 ft 484 kts 81°
2026-05-06 07:38 57.77074 48.77055 32830 ft 483 kts 81°
2026-05-06 07:38 57.77948 48.89480 32844 ft 483 kts 81°
2026-05-06 07:39 57.78807 49.01936 32863 ft 482 kts 81°
2026-05-06 07:39 57.79655 49.14376 32842 ft 483 kts 82°
2026-05-06 07:40 57.80493 49.26905 32837 ft 483 kts 82°
2026-05-06 07:40 57.81311 49.39398 32834 ft 484 kts 82°
2026-05-06 07:41 57.82128 49.51932 32836 ft 484 kts 82°
2026-05-06 07:41 57.82929 49.64469 32837 ft 484 kts 82°
2026-05-06 07:42 57.83711 49.77007 32822 ft 484 kts 82°
2026-05-06 07:42 57.84480 49.89545 32846 ft 483 kts 82°
2026-05-06 07:43 57.85234 50.02033 32852 ft 482 kts 82°
2026-05-06 07:43 57.85991 50.14511 32851 ft 481 kts 82°
2026-05-06 07:44 57.86738 50.27022 32850 ft 481 kts 82°
2026-05-06 07:44 57.87465 50.39442 32848 ft 481 kts 83°
2026-05-06 07:45 57.88190 50.51935 32855 ft 481 kts 83°
2026-05-06 07:45 57.88896 50.64424 32847 ft 482 kts 83°
2026-05-06 07:46 57.89587 50.76961 32849 ft 482 kts 83°
2026-05-06 07:46 57.90265 50.89549 32825 ft 482 kts 83°
2026-05-06 07:47 57.90932 51.02052 32844 ft 482 kts 83°
2026-05-06 07:47 57.91583 51.14589 32868 ft 481 kts 83°
2026-05-06 07:48 57.92233 51.27144 32860 ft 481 kts 83°
2026-05-06 07:48 57.92861 51.39640 32855 ft 482 kts 83°
2026-05-06 07:49 57.93479 51.52195 32853 ft 482 kts 83°
2026-05-06 07:49 57.94103 51.64752 32856 ft 482 kts 84°
2026-05-06 07:50 57.94706 51.77268 32857 ft 482 kts 84°
2026-05-06 07:50 57.95301 51.89851 32867 ft 482 kts 84°
2026-05-06 07:51 57.95886 52.02409 32831 ft 482 kts 84°
2026-05-06 07:51 57.96439 52.14918 32849 ft 481 kts 84°
2026-05-06 07:52 57.96994 52.27469 32857 ft 481 kts 84°
2026-05-06 07:52 57.97544 52.40072 32858 ft 481 kts 84°
2026-05-06 07:53 57.98072 52.52620 32859 ft 480 kts 84°
2026-05-06 07:53 57.98584 52.65167 32862 ft 480 kts 84°
2026-05-06 07:54 57.99092 52.77729 32854 ft 480 kts 84°
2026-05-06 07:54 57.99583 52.90252 32851 ft 481 kts 85°
2026-05-06 07:55 58.00063 53.02815 32853 ft 481 kts 85°
2026-05-06 07:55 58.00527 53.15366 32852 ft 480 kts 85°
2026-05-06 07:56 58.00985 53.27930 32838 ft 480 kts 85°
2026-05-06 07:56 58.01426 53.40466 32855 ft 480 kts 85°
2026-05-06 07:57 58.01850 53.53042 32850 ft 481 kts 86°
2026-05-06 07:57 58.02264 53.65636 32845 ft 481 kts 86°
2026-05-06 07:58 58.02678 53.78284 32845 ft 481 kts 86°
2026-05-06 07:58 58.03073 53.90792 32843 ft 481 kts 86°
2026-05-06 07:59 58.03451 54.03462 32856 ft 481 kts 86°
2026-05-06 07:59 58.03829 54.16070 32840 ft 482 kts 86°
2026-05-06 08:00 58.04203 54.28672 32836 ft 482 kts 86°
2026-05-06 08:00 58.04556 54.41251 32819 ft 482 kts 87°
2026-05-06 08:01 58.04892 54.53959 32826 ft 482 kts 87°
2026-05-06 08:01 58.05216 54.66574 32832 ft 482 kts 87°
2026-05-06 08:02 58.05391 54.79198 32846 ft 482 kts 94°
2026-05-06 08:02 58.04563 54.91842 32835 ft 483 kts 98°
2026-05-06 08:03 58.03674 55.04324 32833 ft 483 kts 98°
2026-05-06 08:03 58.02769 55.16942 32839 ft 484 kts 98°
2026-05-06 08:04 58.01856 55.29442 32841 ft 484 kts 98°
2026-05-06 08:04 58.00934 55.42011 32822 ft 484 kts 99°
2026-05-06 08:05 58.00154 55.52560 32837 ft 484 kts 99°
2026-05-06 08:05 57.99214 55.65139 32853 ft 485 kts 99°
2026-05-06 08:06 57.98263 55.77656 32850 ft 486 kts 99°
2026-05-06 08:06 57.97292 55.90267 32825 ft 486 kts 99°
2026-05-06 08:07 57.96306 56.02937 32829 ft 487 kts 99°
2026-05-06 08:07 57.95322 56.15514 32830 ft 487 kts 99°
2026-05-06 08:08 57.94327 56.28099 32818 ft 487 kts 100°
2026-05-06 08:08 57.93312 56.40707 32852 ft 487 kts 100°
2026-05-06 08:09 57.92277 56.53315 32835 ft 488 kts 100°
2026-05-06 08:09 57.91235 56.65944 32832 ft 489 kts 100°
2026-05-06 08:10 57.90177 56.78611 32831 ft 489 kts 101°
2026-05-06 08:10 57.89109 56.91193 32834 ft 489 kts 101°
2026-05-06 08:11 57.88020 57.03782 32838 ft 489 kts 101°
2026-05-06 08:11 57.86915 57.16481 32836 ft 490 kts 101°
2026-05-06 08:12 57.85820 57.29045 32838 ft 490 kts 101°
2026-05-06 08:12 57.84697 57.41690 32841 ft 490 kts 101°
2026-05-06 08:13 57.83566 57.54223 32842 ft 490 kts 101°
2026-05-06 08:13 57.82416 57.66837 32841 ft 489 kts 101°
2026-05-06 08:14 57.81257 57.79414 32842 ft 489 kts 101°
2026-05-06 08:14 57.80082 57.91985 32810 ft 489 kts 102°
2026-05-06 08:15 57.78902 58.04492 32837 ft 489 kts 102°
2026-05-06 08:15 57.77719 58.17037 32833 ft 489 kts 102°
2026-05-06 08:16 57.76527 58.29518 32834 ft 488 kts 102°
2026-05-06 08:16 57.75318 58.42085 32829 ft 489 kts 102°
2026-05-06 08:17 57.74114 58.54576 32829 ft 489 kts 102°
2026-05-06 08:17 57.72883 58.67087 32838 ft 489 kts 103°
2026-05-06 08:18 57.71643 58.79558 32818 ft 489 kts 102°
2026-05-06 08:18 57.70390 58.92097 32847 ft 489 kts 103°
2026-05-06 08:19 57.69134 59.04522 32847 ft 489 kts 103°
2026-05-06 08:19 57.67856 59.17042 32848 ft 489 kts 103°
2026-05-06 08:20 57.66563 59.29512 32860 ft 489 kts 103°
2026-05-06 08:21 57.64013 59.53769 32862 ft 489 kts 103°
2026-05-06 08:21 57.62696 59.66214 32858 ft 488 kts 103°
2026-05-06 08:22 57.61365 59.78635 32879 ft 488 kts 103°
2026-05-06 08:22 57.60013 59.91037 32871 ft 487 kts 103°
2026-05-06 08:23 57.58651 60.03422 32866 ft 487 kts 104°
2026-05-06 08:23 57.57277 60.15793 32863 ft 487 kts 104°
2026-05-06 08:24 57.55905 60.28080 32868 ft 488 kts 104°
2026-05-06 08:24 57.54511 60.40440 32870 ft 488 kts 104°
2026-05-06 08:25 57.53105 60.52791 32883 ft 487 kts 104°
2026-05-06 08:25 57.52067 60.65219 32885 ft 487 kts 94°
2026-05-06 08:26 57.51719 60.77804 32882 ft 487 kts 94°
2026-05-06 08:26 57.51351 60.90373 32887 ft 486 kts 94°
2026-05-06 08:27 57.50966 61.02922 32882 ft 486 kts 94°
2026-05-06 08:27 57.50568 61.15392 32882 ft 486 kts 95°
2026-05-06 08:28 57.50156 61.27926 32877 ft 486 kts 94°
2026-05-06 08:28 57.49738 61.40471 32865 ft 487 kts 94°
2026-05-06 08:29 57.49304 61.53039 32848 ft 487 kts 94°
2026-05-06 08:29 57.48855 61.65581 32879 ft 486 kts 95°
2026-05-06 08:30 57.48398 61.78106 32888 ft 485 kts 95°
2026-05-06 08:30 57.47936 61.90608 32887 ft 485 kts 95°
2026-05-06 08:31 57.47456 62.03100 32892 ft 484 kts 95°
2026-05-06 08:31 57.46967 62.15585 32881 ft 484 kts 95°
2026-05-06 08:32 57.46469 62.27991 32877 ft 484 kts 95°
2026-05-06 08:32 57.45962 62.40468 32875 ft 484 kts 95°
2026-05-06 08:33 57.45452 62.52962 32876 ft 484 kts 95°
2026-05-06 08:33 57.44927 62.65433 32873 ft 484 kts 95°
2026-05-06 08:34 57.44119 62.84072 32894 ft 482 kts 95°
2026-05-06 08:35 57.43557 62.96469 32896 ft 481 kts 95°
2026-05-06 08:35 57.42991 63.08747 32893 ft 480 kts 95°
2026-05-06 08:36 57.42420 63.21110 32885 ft 480 kts 95°
2026-05-06 08:36 57.41835 63.33440 32897 ft 480 kts 95°
2026-05-06 08:37 57.41230 63.45757 32895 ft 480 kts 95°
2026-05-06 08:37 57.40617 63.58097 32880 ft 480 kts 95°
2026-05-06 08:38 57.39987 63.70429 32862 ft 480 kts 96°
2026-05-06 08:38 57.38783 63.82568 32893 ft 478 kts 105°
2026-05-06 08:39 57.37099 63.94459 32893 ft 478 kts 105°
2026-05-06 08:39 57.35418 64.06322 32901 ft 478 kts 105°
2026-05-06 08:40 57.33717 64.18225 32912 ft 478 kts 105°
2026-05-06 08:40 57.32006 64.30139 32900 ft 478 kts 105°
2026-05-06 08:41 57.30281 64.41990 32899 ft 479 kts 106°
2026-05-06 08:41 57.28542 64.53862 32903 ft 479 kts 106°
2026-05-06 08:42 57.26808 64.65695 32908 ft 478 kts 106°
2026-05-06 08:42 57.25048 64.77550 32925 ft 477 kts 106°
2026-05-06 08:43 57.23281 64.89358 32922 ft 476 kts 106°
2026-05-06 08:43 57.21514 65.01107 32922 ft 476 kts 106°
2026-05-06 08:44 57.19722 65.12907 32924 ft 476 kts 107°
2026-05-06 08:44 57.17927 65.24591 32919 ft 476 kts 107°
2026-05-06 08:45 57.16146 65.36395 32918 ft 476 kts 104°
2026-05-06 08:45 57.14727 65.48242 32921 ft 475 kts 102°
2026-05-06 08:46 57.13457 65.60164 32934 ft 474 kts 102°
2026-05-06 08:46 57.12102 65.71995 32946 ft 474 kts 103°
2026-05-06 08:47 57.10648 65.83858 32950 ft 474 kts 103°
2026-05-06 08:47 57.09184 65.95652 32943 ft 474 kts 103°
2026-05-06 08:48 57.07724 66.07401 32938 ft 474 kts 103°
2026-05-06 08:48 57.06266 66.19222 32947 ft 474 kts 103°
2026-05-06 08:49 57.04800 66.30995 32943 ft 474 kts 103°
2026-05-06 08:49 57.03310 66.42787 32953 ft 475 kts 104°
2026-05-06 08:50 57.01794 66.54627 32950 ft 475 kts 104°
2026-05-06 08:50 57.00275 66.66435 32949 ft 475 kts 104°
2026-05-06 08:51 56.98751 66.78239 32941 ft 476 kts 104°
2026-05-06 08:51 56.97221 66.90022 32945 ft 476 kts 104°
2026-05-06 08:52 56.95672 67.01796 32942 ft 476 kts 104°
2026-05-06 08:52 56.94102 67.13577 32952 ft 476 kts 104°
2026-05-06 08:53 56.92526 67.25336 32950 ft 476 kts 104°
2026-05-06 08:53 56.90944 67.37096 32954 ft 476 kts 104°
2026-05-06 08:54 56.89359 67.48821 32960 ft 476 kts 104°
2026-05-06 08:54 56.87759 67.60564 32966 ft 476 kts 104°
2026-05-06 08:55 56.86145 67.72256 32966 ft 476 kts 104°
2026-05-06 08:55 56.84513 67.83985 32979 ft 476 kts 105°
2026-05-06 08:56 56.82876 67.95650 32965 ft 476 kts 105°
2026-05-06 08:56 56.81217 68.07386 32948 ft 477 kts 105°
2026-05-06 08:57 56.79555 68.19054 32971 ft 476 kts 105°
2026-05-06 08:57 56.77888 68.30718 32982 ft 475 kts 105°
2026-05-06 08:58 56.76205 68.42403 32979 ft 475 kts 105°
2026-05-06 08:58 56.74508 68.54076 32995 ft 475 kts 105°
2026-05-06 08:59 56.72823 68.65617 32984 ft 476 kts 105°
2026-05-06 08:59 56.71101 68.77279 32982 ft 476 kts 105°
2026-05-06 09:00 56.69368 68.88963 32976 ft 476 kts 105°
2026-05-06 09:00 56.67640 69.00524 32976 ft 476 kts 105°
2026-05-06 09:01 56.65901 69.12087 32993 ft 475 kts 105°
2026-05-06 09:01 56.64143 69.23660 32997 ft 474 kts 105°
2026-05-06 09:02 56.62372 69.35216 33003 ft 475 kts 105°
2026-05-06 09:02 56.60604 69.46742 32995 ft 475 kts 105°
2026-05-06 09:03 56.58822 69.58281 32986 ft 475 kts 105°
2026-05-06 09:03 56.57021 69.69814 32995 ft 475 kts 106°
2026-05-06 09:04 56.55211 69.81338 32985 ft 475 kts 106°
2026-05-06 09:04 56.53402 69.92808 32991 ft 474 kts 106°
2026-05-06 09:05 56.51553 70.04272 33005 ft 473 kts 107°
2026-05-06 09:05 56.49562 70.15653 33000 ft 473 kts 108°
2026-05-06 09:06 56.47520 70.26865 32987 ft 473 kts 108°
2026-05-06 09:06 56.45463 70.38180 32982 ft 473 kts 108°
2026-05-06 09:07 56.43419 70.49481 32983 ft 473 kts 108°
2026-05-06 09:07 56.41369 70.60786 32994 ft 473 kts 108°
2026-05-06 09:08 56.39306 70.72093 32998 ft 473 kts 108°
2026-05-06 09:08 56.37242 70.83308 33004 ft 473 kts 108°
2026-05-06 09:09 56.35146 70.94612 33004 ft 473 kts 108°
2026-05-06 09:09 56.33063 71.05809 33006 ft 473 kts 108°
2026-05-06 09:10 56.30967 71.17013 32994 ft 473 kts 108°
2026-05-06 09:10 56.28848 71.28257 32998 ft 473 kts 108°
2026-05-06 09:11 56.26717 71.39490 33010 ft 473 kts 108°
2026-05-06 09:11 56.24578 71.50686 33007 ft 474 kts 108°
2026-05-06 09:12 56.22441 71.61826 33001 ft 473 kts 108°
2026-05-06 09:12 56.20287 71.73023 33006 ft 473 kts 108°
2026-05-06 09:13 56.18118 71.84189 33012 ft 473 kts 108°
2026-05-06 09:13 56.16303 71.93474 33005 ft 473 kts 108°
2026-05-06 09:14 56.14111 72.04625 33003 ft 473 kts 109°
2026-05-06 09:14 56.11916 72.15731 32998 ft 473 kts 109°
2026-05-06 09:15 56.09727 72.26790 32981 ft 473 kts 109°
2026-05-06 09:15 56.07516 72.37917 32998 ft 473 kts 109°
2026-05-06 09:16 56.05292 72.49001 32991 ft 472 kts 109°
2026-05-06 09:16 56.03075 72.59986 32996 ft 472 kts 109°
2026-05-06 09:17 56.00833 72.71034 32999 ft 472 kts 109°
2026-05-06 09:17 55.98596 72.82028 33007 ft 472 kts 109°
2026-05-06 09:18 55.96333 72.93059 32996 ft 472 kts 109°
2026-05-06 09:18 55.94063 73.04051 32984 ft 472 kts 109°
2026-05-06 09:19 55.91785 73.15004 32997 ft 471 kts 109°
2026-05-06 09:19 55.89664 73.26012 32995 ft 470 kts 102°
2026-05-06 09:20 55.88618 73.37449 32997 ft 468 kts 97°
2026-05-06 09:20 55.87636 73.48868 32996 ft 469 kts 97°
2026-05-06 09:21 55.86624 73.60327 32995 ft 469 kts 97°
2026-05-06 09:21 55.85597 73.71806 32998 ft 469 kts 97°
2026-05-06 09:22 55.84575 73.83215 32988 ft 468 kts 98°
2026-05-06 09:22 55.83533 73.94717 32977 ft 468 kts 98°
2026-05-06 09:23 55.82493 74.06086 32988 ft 468 kts 98°
2026-05-06 09:23 55.81433 74.17563 32975 ft 468 kts 98°
2026-05-06 09:24 55.80359 74.28954 32965 ft 468 kts 98°
2026-05-06 09:24 55.79271 74.40329 32966 ft 468 kts 98°
2026-05-06 09:25 55.78174 74.51783 32969 ft 469 kts 98°
2026-05-06 09:25 55.77073 74.63227 32967 ft 469 kts 98°
2026-05-06 09:26 55.75956 74.74596 32977 ft 469 kts 98°
2026-05-06 09:26 55.74834 74.85983 32964 ft 469 kts 98°
2026-05-06 09:27 55.73703 74.97403 32964 ft 469 kts 99°
2026-05-06 09:27 55.72556 75.08818 32956 ft 469 kts 99°
2026-05-06 09:28 55.71407 75.20179 32956 ft 469 kts 99°
2026-05-06 09:28 55.70238 75.31615 32952 ft 470 kts 99°
2026-05-06 09:29 55.69059 75.42966 32949 ft 470 kts 99°
2026-05-06 09:29 55.67867 75.54362 32940 ft 471 kts 99°
2026-05-06 09:30 55.66667 75.65773 32940 ft 471 kts 99°
2026-05-06 09:30 55.65464 75.77120 32934 ft 471 kts 99°
2026-05-06 09:31 55.64247 75.88516 32937 ft 471 kts 99°
2026-05-06 09:31 55.63017 75.99929 32944 ft 472 kts 100°
2026-05-06 09:32 55.61773 76.11323 32927 ft 472 kts 100°
2026-05-06 09:32 55.60524 76.22710 32926 ft 472 kts 100°
2026-05-06 09:33 55.59263 76.34074 32916 ft 472 kts 100°
2026-05-06 09:33 55.57989 76.45458 32914 ft 472 kts 100°
2026-05-06 09:34 55.56710 76.56781 32885 ft 472 kts 101°
2026-05-06 09:34 55.55403 76.68198 32881 ft 474 kts 101°
2026-05-06 09:35 55.54093 76.79631 32888 ft 476 kts 101°
2026-05-06 09:35 55.52762 76.91098 32891 ft 477 kts 101°
2026-05-06 09:36 55.51418 77.02623 32891 ft 478 kts 101°
2026-05-06 09:36 55.50072 77.14079 32902 ft 478 kts 102°
2026-05-06 09:37 55.48704 77.25554 32887 ft 479 kts 102°
2026-05-06 09:37 55.47323 77.37041 32887 ft 480 kts 102°
2026-05-06 09:38 55.45922 77.48605 32886 ft 481 kts 102°
2026-05-06 09:38 55.44525 77.60109 32891 ft 481 kts 102°
2026-05-06 09:39 55.43117 77.71597 32902 ft 481 kts 102°
2026-05-06 09:39 55.41671 77.83158 32868 ft 483 kts 103°
2026-05-06 09:40 55.40216 77.94737 32875 ft 485 kts 103°
2026-05-06 09:40 55.38017 78.12155 32881 ft 487 kts 103°
2026-05-06 09:41 55.36540 78.23730 32881 ft 488 kts 103°
2026-05-06 09:41 55.35123 78.35423 32886 ft 488 kts 100°
2026-05-06 09:42 55.34165 78.47206 32889 ft 489 kts 97°
2026-05-06 09:42 55.33373 78.59050 32893 ft 489 kts 97°
2026-05-06 09:43 55.32474 78.70916 32893 ft 488 kts 98°
2026-05-06 09:43 55.31479 78.82723 32893 ft 488 kts 99°
2026-05-06 09:44 55.30474 78.94462 32879 ft 489 kts 99°
2026-05-06 09:44 55.29474 79.06268 32870 ft 490 kts 99°
2026-05-06 09:45 55.28460 79.18152 32866 ft 495 kts 100°
2026-05-06 09:45 55.27429 79.30096 32870 ft 496 kts 100°
2026-05-06 09:46 55.26388 79.42004 32861 ft 496 kts 100°
2026-05-06 09:46 55.25325 79.53991 32857 ft 496 kts 101°
2026-05-06 09:47 55.24250 79.65924 32858 ft 497 kts 101°
2026-05-06 09:47 55.23157 79.77881 32866 ft 497 kts 101°
2026-05-06 09:48 55.22060 79.89829 32859 ft 498 kts 101°
2026-05-06 09:48 55.20952 80.01843 32862 ft 498 kts 101°
2026-05-06 09:49 55.19842 80.13726 32840 ft 499 kts 102°
2026-05-06 09:49 55.18698 80.25787 32837 ft 501 kts 102°
2026-05-06 09:50 55.17541 80.37839 32837 ft 502 kts 102°
2026-05-06 09:50 55.16379 80.49821 32844 ft 503 kts 102°
2026-05-06 09:51 55.15198 80.61901 32837 ft 504 kts 102°
2026-05-06 09:51 55.14007 80.73965 32843 ft 504 kts 103°
2026-05-06 09:52 55.12802 80.86025 32863 ft 503 kts 103°
2026-05-06 09:52 55.11758 80.98076 32865 ft 505 kts 94°
2026-05-06 09:53 55.11783 81.10369 32868 ft 506 kts 91°
2026-05-06 09:53 55.11829 81.22651 32858 ft 506 kts 91°
2026-05-06 09:54 55.11853 81.34977 32862 ft 506 kts 92°
2026-05-06 09:54 55.11861 81.47262 32867 ft 506 kts 92°
2026-05-06 09:55 55.11860 81.59573 32871 ft 506 kts 92°
2026-05-06 09:55 55.11847 81.71889 32873 ft 506 kts 92°
2026-05-06 09:56 55.11816 81.84133 32867 ft 506 kts 92°
2026-05-06 09:56 55.11786 81.96470 32866 ft 506 kts 92°
2026-05-06 09:57 55.11740 82.08796 32868 ft 506 kts 92°
2026-05-06 09:57 55.11670 82.21038 32868 ft 506 kts 93°
2026-05-06 09:58 55.11588 82.33330 32865 ft 506 kts 93°
2026-05-06 09:58 55.11857 82.45595 32860 ft 508 kts 80°
2026-05-06 09:59 55.13229 82.57770 32855 ft 509 kts 78°
2026-05-06 09:59 55.15039 82.69724 32856 ft 509 kts 73°
2026-05-06 10:00 55.15782 82.75695 32847 ft 507 kts 85°
2026-05-06 10:00 55.15866 82.81711 32862 ft 487 kts 102°
2026-05-06 10:00 55.14909 82.87257 32860 ft 455 kts 125°
2026-05-06 10:00 55.13086 82.91447 32871 ft 420 kts 148°
2026-05-06 10:01 55.10685 82.93949 32875 ft 392 kts 172°
2026-05-06 10:01 55.08093 82.94517 32873 ft 368 kts 195°
2026-05-06 10:01 55.05700 82.93204 32830 ft 352 kts 217°
2026-05-06 10:01 55.03959 82.90440 32868 ft 341 kts 240°
2026-05-06 10:02 55.03139 82.86614 32886 ft 341 kts 262°
2026-05-06 10:02 55.02922 82.82494 32865 ft 344 kts 262°
2026-05-06 10:02 55.02206 82.74235 32865 ft 345 kts 259°
2026-05-06 10:03 55.01500 82.67317 32865 ft 345 kts 259°
2026-05-06 10:03 55.00682 82.59096 32864 ft 345 kts 256°
2026-05-06 10:04 54.99701 82.55305 32864 ft 345 kts 232°
2026-05-06 10:04 54.97831 82.52701 32865 ft 355 kts 208°
2026-05-06 10:04 54.95396 82.51765 32867 ft 374 kts 184°
2026-05-06 10:04 54.92781 82.52772 32866 ft 396 kts 160°
2026-05-06 10:05 54.90515 82.55642 32867 ft 417 kts 136°
2026-05-06 10:05 54.88981 82.59973 32868 ft 434 kts 113°
2026-05-06 10:05 54.87579 82.70290 32870 ft 442 kts 106°
2026-05-06 10:06 54.86371 82.80814 32866 ft 446 kts 94°
2026-05-06 10:06 54.86700 82.86147 32884 ft 449 kts 73°
2026-05-06 10:06 54.87843 82.91168 32878 ft 450 kts 62°
2026-05-06 10:07 54.90887 83.00646 32878 ft 451 kts 59°
2026-05-06 10:07 54.93571 83.10596 32887 ft 452 kts 68°
2026-05-06 10:08 54.95888 83.20703 32897 ft 452 kts 68°
2026-05-06 10:08 54.98212 83.30842 32897 ft 452 kts 68°
2026-05-06 10:09 55.00551 83.41033 32897 ft 452 kts 68°
2026-05-06 10:09 55.02872 83.51184 32901 ft 452 kts 68°
2026-05-06 10:10 55.05203 83.61415 32901 ft 452 kts 68°
2026-05-06 10:10 55.07520 83.71570 32906 ft 452 kts 68°
2026-05-06 10:11 55.09857 83.81798 32906 ft 452 kts 68°
2026-05-06 10:11 55.12187 83.91968 32899 ft 452 kts 68°
2026-05-06 10:12 55.14533 84.02142 32910 ft 452 kts 68°
2026-05-06 10:12 55.16894 84.12384 32915 ft 452 kts 68°
2026-05-06 10:13 55.19252 84.22572 32909 ft 452 kts 67°
2026-05-06 10:13 55.21613 84.32765 32911 ft 452 kts 68°
2026-05-06 10:14 55.23969 84.42930 32917 ft 452 kts 67°
2026-05-06 10:14 55.26328 84.53137 32921 ft 453 kts 67°
2026-05-06 10:15 55.28690 84.63438 32922 ft 454 kts 67°
2026-05-06 10:15 55.31050 84.73725 32920 ft 454 kts 67°
2026-05-06 10:16 55.33417 84.84024 32924 ft 454 kts 67°
2026-05-06 10:16 55.35775 84.94269 32920 ft 454 kts 67°
2026-05-06 10:17 55.38143 85.04554 32921 ft 455 kts 67°
2026-05-06 10:17 55.40499 85.14897 32918 ft 455 kts 67°
2026-05-06 10:18 55.42860 85.25273 32918 ft 455 kts 67°
2026-05-06 10:18 55.45223 85.35619 32918 ft 455 kts 67°
2026-05-06 10:19 55.47585 85.45932 32915 ft 455 kts 67°
2026-05-06 10:19 55.49954 85.56259 32919 ft 456 kts 67°
2026-05-06 10:20 55.52303 85.66668 32912 ft 456 kts 67°
2026-05-06 10:20 55.54630 85.77001 32913 ft 456 kts 67°
2026-05-06 10:21 55.56981 85.87417 32912 ft 456 kts 66°
2026-05-06 10:21 55.59342 85.97860 32912 ft 456 kts 66°
2026-05-06 10:22 55.61699 86.08270 32910 ft 456 kts 66°
2026-05-06 10:22 55.64022 86.18665 32909 ft 453 kts 66°
2026-05-06 10:23 55.66318 86.28992 32911 ft 452 kts 66°
2026-05-06 10:23 55.68625 86.39358 32912 ft 452 kts 66°
2026-05-06 10:24 55.70940 86.49743 32912 ft 453 kts 66°
2026-05-06 10:24 55.73253 86.60092 32911 ft 452 kts 66°
2026-05-06 10:25 55.75576 86.70460 32909 ft 451 kts 66°
2026-05-06 10:25 55.77900 86.80818 32913 ft 451 kts 66°
2026-05-06 10:26 55.80224 86.91156 32914 ft 451 kts 66°
2026-05-06 10:26 55.82546 87.01471 32915 ft 451 kts 66°
2026-05-06 10:27 55.84871 87.11779 32918 ft 451 kts 66°
2026-05-06 10:27 55.87211 87.22173 32915 ft 451 kts 66°
2026-05-06 10:28 55.89507 87.32547 32921 ft 451 kts 66°
2026-05-06 10:28 55.91821 87.42991 32920 ft 451 kts 66°
2026-05-06 10:29 55.94119 87.53335 32923 ft 451 kts 66°
2026-05-06 10:29 55.96436 87.63748 32924 ft 451 kts 66°
2026-05-06 10:30 55.98756 87.74155 32932 ft 451 kts 65°
2026-05-06 10:30 56.01051 87.84592 32926 ft 450 kts 66°
2026-05-06 10:31 56.03331 87.94985 32946 ft 450 kts 66°
2026-05-06 10:31 56.05626 88.05348 32925 ft 450 kts 65°
2026-05-06 10:32 56.07952 88.15810 32934 ft 450 kts 65°
2026-05-06 10:32 56.10270 88.26220 32937 ft 450 kts 65°
2026-05-06 10:33 56.12569 88.36601 32933 ft 449 kts 65°
2026-05-06 10:33 56.14844 88.46980 32931 ft 448 kts 65°
2026-05-06 10:34 56.17130 88.57383 32935 ft 448 kts 65°
2026-05-06 10:34 56.19432 88.67844 32942 ft 448 kts 65°
2026-05-06 10:35 56.21711 88.78180 32940 ft 448 kts 65°
2026-05-06 10:35 56.24011 88.88600 32949 ft 448 kts 65°
2026-05-06 10:36 56.26281 88.99001 32944 ft 447 kts 65°
2026-05-06 10:36 56.28560 89.09436 32946 ft 447 kts 65°
2026-05-06 10:37 56.30830 89.19817 32963 ft 447 kts 65°
2026-05-06 10:37 56.33133 89.30246 32951 ft 448 kts 65°
2026-05-06 10:38 56.35451 89.40661 32953 ft 449 kts 65°
2026-05-06 10:38 56.37787 89.51139 32953 ft 449 kts 65°
2026-05-06 10:39 56.40121 89.61587 32956 ft 449 kts 65°
2026-05-06 10:39 56.42461 89.72036 32956 ft 449 kts 65°
2026-05-06 10:40 56.44806 89.82486 32956 ft 448 kts 64°
2026-05-06 10:40 56.47152 89.92823 32957 ft 447 kts 64°
2026-05-06 10:41 56.50209 90.02387 32960 ft 431 kts 39°
2026-05-06 10:41 56.52491 90.05735 32952 ft 416 kts 22°
2026-05-06 10:41 56.55081 90.07854 32953 ft 403 kts
2026-05-06 10:42 56.57786 90.08718 32957 ft 389 kts 353°
2026-05-06 10:42 56.60451 90.08473 32962 ft 382 kts 348°
2026-05-06 10:42 56.65845 90.08739 32948 ft 390 kts 355°
2026-05-06 10:43 56.68518 90.08598 32947 ft 377 kts 341°
2026-05-06 10:43 56.70952 90.07160 32951 ft 362 kts 324°
2026-05-06 10:43 56.72985 90.04609 32949 ft 351 kts 310°
2026-05-06 10:44 56.75468 89.97247 32942 ft 338 kts 282°
2026-05-06 10:44 56.75799 89.93045 32947 ft 335 kts 269°
2026-05-06 10:44 56.75509 89.88834 32948 ft 336 kts 256°
2026-05-06 10:45 56.73979 89.80744 32945 ft 338 kts 253°
2026-05-06 10:45 56.72440 89.72711 32950 ft 338 kts 253°
2026-05-06 10:46 56.70877 89.64625 32948 ft 338 kts 253°
2026-05-06 10:46 56.69317 89.56548 32948 ft 338 kts 253°
2026-05-06 10:47 56.67757 89.48468 32946 ft 338 kts 253°
2026-05-06 10:47 56.66185 89.40408 32944 ft 338 kts 253°
2026-05-06 10:48 56.64608 89.32364 32947 ft 338 kts 253°
2026-05-06 10:48 56.63027 89.24327 32944 ft 337 kts 253°
2026-05-06 10:49 56.61445 89.16320 32942 ft 337 kts 253°
2026-05-06 10:49 56.59864 89.08320 32942 ft 337 kts 253°
2026-05-06 10:50 56.58289 89.00317 32942 ft 337 kts 253°
2026-05-06 10:50 56.56842 88.92250 32936 ft 334 kts 263°
2026-05-06 10:51 56.56338 88.85304 32940 ft 334 kts 264°
2026-05-06 10:51 56.55743 88.76950 32935 ft 335 kts 263°
2026-05-06 10:52 56.55143 88.68568 32934 ft 335 kts 263°
2026-05-06 10:52 56.54531 88.60203 32931 ft 335 kts 263°
2026-05-06 10:53 56.53914 88.51833 32934 ft 335 kts 263°
2026-05-06 10:53 56.53298 88.43492 32715 ft 342 kts 263°
2026-05-06 10:53 56.52972 88.39135 32536 ft 355 kts 263°
2026-05-06 10:54 56.52635 88.34633 32345 ft 367 kts 263°
2026-05-06 10:54 56.52285 88.29976 32163 ft 379 kts 263°
2026-05-06 10:54 56.51924 88.25204 31983 ft 384 kts 262°
2026-05-06 10:55 56.51187 88.15590 31928 ft 387 kts 262°
2026-05-06 10:55 56.50440 88.05930 31923 ft 387 kts 262°
2026-05-06 10:56 56.49687 87.96281 31920 ft 387 kts 262°
2026-05-06 10:56 56.48926 87.86626 31917 ft 387 kts 262°
2026-05-06 10:57 56.48158 87.76971 31919 ft 387 kts 262°
2026-05-06 10:57 56.47374 87.67338 31916 ft 387 kts 261°
2026-05-06 10:58 56.46593 87.57766 31909 ft 387 kts 261°
2026-05-06 10:58 56.45805 87.48134 31907 ft 387 kts 261°
2026-05-06 10:59 56.44998 87.38442 31907 ft 387 kts 261°
2026-05-06 10:59 56.44202 87.28878 31905 ft 387 kts 261°
2026-05-06 11:00 56.43391 87.19261 31905 ft 387 kts 261°
2026-05-06 11:00 56.42561 87.09636 31916 ft 387 kts 261°
2026-05-06 11:01 56.41727 87.00016 31918 ft 387 kts 261°
2026-05-06 11:01 56.40889 86.90396 31919 ft 388 kts 261°
2026-05-06 11:02 56.40047 86.80792 31912 ft 387 kts 260°
2026-05-06 11:02 56.39196 86.71197 31910 ft 387 kts 260°
2026-05-06 11:03 56.38338 86.61602 31915 ft 387 kts 260°
2026-05-06 11:03 56.37474 86.51986 31925 ft 387 kts 260°
2026-05-06 11:04 56.36604 86.42418 31921 ft 386 kts 259°
2026-05-06 11:04 56.35720 86.32870 31917 ft 386 kts 259°
2026-05-06 11:05 56.34837 86.23395 31910 ft 385 kts 259°
2026-05-06 11:05 56.33951 86.13874 31905 ft 385 kts 259°
2026-05-06 11:06 56.33053 86.04355 31903 ft 385 kts 259°
2026-05-06 11:06 56.32146 85.94845 31910 ft 385 kts 259°
2026-05-06 11:06 56.31690 85.90075 31672 ft 386 kts 259°
2026-05-06 11:07 56.31236 85.85317 31489 ft 385 kts 258°
2026-05-06 11:07 56.30777 85.80554 31713 ft 387 kts 259°
2026-05-06 11:07 56.30310 85.75756 31883 ft 390 kts 259°
2026-05-06 11:08 56.29377 85.66193 31911 ft 386 kts 259°
2026-05-06 11:08 56.28443 85.56693 31912 ft 385 kts 258°
2026-05-06 11:09 56.27500 85.47191 31912 ft 386 kts 258°
2026-05-06 11:09 56.26548 85.37698 31918 ft 385 kts 258°
2026-05-06 11:10 56.25588 85.28216 31920 ft 385 kts 258°
2026-05-06 11:10 56.24627 85.18737 31906 ft 385 kts 258°
2026-05-06 11:11 56.23655 85.09246 31902 ft 385 kts 258°
2026-05-06 11:11 56.22672 84.99778 31903 ft 385 kts 258°
2026-05-06 11:12 56.21683 84.90310 31899 ft 385 kts 258°
2026-05-06 11:12 56.20693 84.80853 31869 ft 386 kts 258°
2026-05-06 11:12 56.20197 84.76160 31606 ft 387 kts 257°
2026-05-06 11:13 56.19689 84.71349 31331 ft 387 kts 257°
2026-05-06 11:13 56.19188 84.66599 31083 ft 387 kts 257°
2026-05-06 11:13 56.18684 84.61860 30836 ft 386 kts 257°
2026-05-06 11:13 56.18176 84.57125 30590 ft 386 kts 257°
2026-05-06 11:14 56.17668 84.52401 30287 ft 384 kts 257°
2026-05-06 11:14 56.17169 84.47790 29761 ft 379 kts 257°
2026-05-06 11:14 56.16668 84.43180 29217 ft 374 kts 257°
2026-05-06 11:14 56.16173 84.38633 28701 ft 369 kts 257°
2026-05-06 11:15 56.15684 84.34137 28193 ft 365 kts 257°
2026-05-06 11:15 56.15190 84.29647 27675 ft 368 kts 257°
2026-05-06 11:15 56.14692 84.25149 27156 ft 368 kts 257°
2026-05-06 11:15 56.14195 84.20651 26643 ft 367 kts 257°
2026-05-06 11:16 56.13699 84.16167 26135 ft 366 kts 257°
2026-05-06 11:16 56.13207 84.11704 25628 ft 364 kts 257°
2026-05-06 11:16 56.12709 84.07253 25133 ft 363 kts 257°
2026-05-06 11:16 56.12212 84.02830 24637 ft 361 kts 257°
2026-05-06 11:17 56.11719 83.98427 24148 ft 360 kts 257°
2026-05-06 11:17 56.11224 83.94042 23663 ft 359 kts 257°
2026-05-06 11:17 56.10727 83.89667 23135 ft 357 kts 257°
2026-05-06 11:17 56.10233 83.85310 22647 ft 356 kts 257°
2026-05-06 11:18 56.09738 83.80977 22193 ft 354 kts 257°
2026-05-06 11:18 56.09244 83.76669 21733 ft 353 kts 257°
2026-05-06 11:18 56.08752 83.72369 21302 ft 351 kts 257°
2026-05-06 11:18 56.08081 83.68189 20872 ft 349 kts 248°
2026-05-06 11:19 56.06992 83.64322 20414 ft 348 kts 239°
2026-05-06 11:19 56.05521 83.60874 19955 ft 349 kts 231°
2026-05-06 11:19 56.03923 83.57628 19498 ft 348 kts 231°
2026-05-06 11:19 56.02344 83.54423 19060 ft 347 kts 231°
2026-05-06 11:20 56.00751 83.51197 18626 ft 346 kts 231°
2026-05-06 11:20 55.99164 83.47982 18191 ft 345 kts 231°
2026-05-06 11:20 55.97580 83.44776 17714 ft 343 kts 231°
2026-05-06 11:20 55.96004 83.41588 17266 ft 342 kts 231°
2026-05-06 11:21 55.94433 83.38413 16829 ft 340 kts 231°
2026-05-06 11:21 55.92870 83.35258 16383 ft 338 kts 231°
2026-05-06 11:21 55.91317 83.32119 15941 ft 337 kts 231°
2026-05-06 11:21 55.89773 83.28998 15480 ft 335 kts 231°
2026-05-06 11:22 55.88229 83.25889 15019 ft 334 kts 230°
2026-05-06 11:22 55.86689 83.22802 14549 ft 332 kts 230°
2026-05-06 11:22 55.85155 83.19730 14061 ft 331 kts 230°
2026-05-06 11:22 55.83627 83.16675 13581 ft 330 kts 230°
2026-05-06 11:23 55.82102 83.13629 13066 ft 328 kts 230°
2026-05-06 11:23 55.80585 83.10603 12573 ft 326 kts 230°
2026-05-06 11:23 55.79045 83.07657 12079 ft 326 kts 225°
2026-05-06 11:23 55.77229 83.05240 11581 ft 327 kts 214°
2026-05-06 11:24 55.75285 83.03153 11076 ft 326 kts 214°
2026-05-06 11:24 55.73344 83.01072 10632 ft 323 kts 214°
2026-05-06 11:24 55.71479 82.99073 10504 ft 311 kts 214°
2026-05-06 11:24 55.69666 82.97129 10379 ft 299 kts 214°
2026-05-06 11:25 55.67922 82.95261 10255 ft 287 kts 214°
2026-05-06 11:25 55.66236 82.93454 10054 ft 280 kts 214°
2026-05-06 11:25 55.64583 82.91682 9815 ft 275 kts 214°
2026-05-06 11:25 55.62950 82.89930 9680 ft 274 kts 214°
2026-05-06 11:26 55.61319 82.88179 9551 ft 274 kts 214°
2026-05-06 11:26 55.59691 82.86432 9390 ft 274 kts 214°
2026-05-06 11:26 55.58027 82.84800 9191 ft 273 kts 210°
2026-05-06 11:26 55.56326 82.83321 9042 ft 271 kts 209°
2026-05-06 11:27 55.54629 82.81901 8910 ft 269 kts 209°
2026-05-06 11:27 55.52937 82.80503 8782 ft 268 kts 209°
2026-05-06 11:27 55.51247 82.79108 8650 ft 268 kts 209°
2026-05-06 11:27 55.49563 82.77713 8521 ft 267 kts 209°
2026-05-06 11:28 55.47881 82.76316 8382 ft 266 kts 209°
2026-05-06 11:28 55.46201 82.74919 8264 ft 267 kts 208°
2026-05-06 11:28 55.44544 82.73540 8138 ft 267 kts 208°
2026-05-06 11:28 55.42857 82.72134 7760 ft 268 kts 208°
2026-05-06 11:29 55.41168 82.70726 7315 ft 269 kts 208°
2026-05-06 11:29 55.39484 82.69321 6946 ft 267 kts 208°
2026-05-06 11:29 55.37794 82.67918 6545 ft 266 kts 208°
2026-05-06 11:29 55.36121 82.66530 6117 ft 267 kts 208°
2026-05-06 11:30 55.34452 82.65148 5802 ft 263 kts 208°
2026-05-06 11:30 55.32797 82.63774 5386 ft 262 kts 208°
2026-05-06 11:30 55.31150 82.62408 4993 ft 261 kts 208°
2026-05-06 11:30 55.29512 82.61055 4597 ft 260 kts 209°
2026-05-06 11:31 55.27871 82.59701 4204 ft 259 kts 208°
2026-05-06 11:31 55.26272 82.58382 4034 ft 249 kts 209°
2026-05-06 11:31 55.24742 82.57123 3920 ft 237 kts 209°
2026-05-06 11:31 55.23281 82.55923 3821 ft 229 kts 209°
2026-05-06 11:32 55.21806 82.54877 3648 ft 231 kts 197°
2026-05-06 11:32 55.20223 82.54711 3389 ft 229 kts 176°
2026-05-06 11:32 55.18691 82.55176 3116 ft 223 kts 173°
2026-05-06 11:32 55.17217 82.55639 2824 ft 206 kts 173°
2026-05-06 11:33 55.15881 82.56057 2565 ft 184 kts 175°
2026-05-06 11:33 55.14684 82.56428 2328 ft 164 kts 175°
2026-05-06 11:33 55.13599 82.56761 2111 ft 154 kts 176°
2026-05-06 11:33 55.12562 82.57078 1898 ft 149 kts 174°
2026-05-06 11:34 55.11545 82.57390 1714 ft 147 kts 174°
2026-05-06 11:34 55.10544 82.57697 1522 ft 146 kts 174°
2026-05-06 11:34 55.09885 82.57900 1395 ft 144 kts 174°
2026-05-06 11:34 55.08890 82.58208 1208 ft 147 kts 172°
2026-05-06 11:35 55.07878 82.58518 1025 ft 148 kts 171°
2026-05-06 11:35 55.06866 82.58832 836 ft 148 kts 171°
2026-05-06 11:35 55.05857 82.59129 633 ft 147 kts 170°
2026-05-06 11:35 55.04856 82.59450 439 ft 146 kts 169°
2026-05-06 11:36 55.03903 82.59754 373 ft 128 kts 170°
2026-05-06 11:36 55.03225 82.59949 373 ft 72 kts 170°
2026-05-06 11:36 55.02878 82.60053 373 ft 35 kts 174°
2026-05-06 11:36 55.02692 82.59990 373 ft 15 kts 203°
2026-05-06 11:37 55.02611 82.59917 373 ft 11 kts 213°
2026-05-06 11:37 55.02552 82.59850 370 ft 10 kts 213°
2026-05-06 11:37 55.02494 82.59812 373 ft 8 kts 184°
2026-05-06 11:37 55.02428 82.59828 373 ft 12 kts 169°
2026-05-06 11:38 55.02330 82.59860 373 ft 17 kts 170°
2026-05-06 11:38 55.02197 82.59901 373 ft 22 kts 170°
2026-05-06 11:38 55.02028 82.59954 373 ft 27 kts 171°
2026-05-06 11:38 55.01823 82.60011 373 ft 32 kts 169°
2026-05-06 11:39 55.01585 82.60088 373 ft 37 kts 171°
2026-05-06 11:39 55.01311 82.60171 373 ft 42 kts 169°
2026-05-06 11:39 55.01113 82.60231 373 ft 28 kts 170°
2026-05-06 11:39 55.00928 82.60288 373 ft 22 kts 170°
2026-05-06 11:40 55.00781 82.60416 373 ft 27 kts 129°
2026-05-06 11:40 55.00677 82.60651 373 ft 21 kts 122°
2026-05-06 11:40 55.00655 82.60924 373 ft 26 kts 81°
2026-05-06 11:40 55.00686 82.61265 373 ft 31 kts 81°
2026-05-06 11:41 55.00723 82.61668 373 ft 36 kts 81°
2026-05-06 11:41 55.00757 82.62041 373 ft 33 kts 81°
2026-05-06 11:41 55.00783 82.62320 373 ft 22 kts 81°
2026-05-06 11:41 55.00810 82.62614 373 ft 27 kts 81°
2026-05-06 11:42 55.00842 82.62965 373 ft 32 kts 81°
2026-05-06 11:42 55.00872 82.63301 373 ft 21 kts 81°
2026-05-06 11:42 55.00897 82.63586 373 ft 26 kts 81°
2026-05-06 11:42 55.00929 82.63931 373 ft 32 kts 81°
2026-05-06 11:43 55.00959 82.64275 373 ft 24 kts 87°
2026-05-06 11:43 55.00926 82.64589 373 ft 29 kts 103°
2026-05-06 11:43 55.00883 82.64908 373 ft 18 kts 103°
2026-05-06 11:44 55.00894 82.65404 373 ft 26 kts 82°
2026-05-06 11:44 55.00918 82.65665 373 ft 19 kts 81°
2026-05-06 11:44 55.00941 82.65924 373 ft 23 kts 81°
2026-05-06 11:44 55.00960 82.66102 373 ft 11 kts 70°
2026-05-06 11:45 55.00997 82.66253 373 ft 14 kts 71°
2026-05-06 11:45 55.01009 82.66317 373 ft 0 kts 72°
2026-05-06 11:45 55.01014 82.66353 373 ft 6 kts 82°
2026-05-06 11:46 55.00989 82.66390 373 ft 7 kts 158°
2026-05-06 11:46 55.00960 82.66400 373 ft 2 kts 169°
2026-05-06 11:46 55.00954 82.66402 373 ft 0 kts 169°